Regional Weather Roundup
Issued by NWS Goodland, KS

Home | Current Version | Previous Version | Text Only | Print | Product List | Glossary Off
Versions: 1 2 3 4 5 6 7 8 9 10 11 12 13 14 15 16 17 18 19 20 21 22 23 24 25 26 27 28 29 30 31 32 33 34 35 36 37 38 39 40 41 42 43 44 45 46 47 48 49 50

000
ASUS43 KGLD 271908
RWRGLD

GOODLAND FORECAST AREA HOURLY WEATHER ROUNDUP
NATIONAL WEATHER SERVICE GOODLAND KS
100 PM MDT THU APR 27 2017

...OFFICIAL OBSERVATIONS...

CITY           SKY/WX    TMP DP  RH WIND       PRES   REMARKS
GOODLAND KS    MOSUNNY   60  38  43 SE23G30   29.49F
HILL CITY KS   CLOUDY    54  38  54 SE15G26   29.61F
IMPERIAL NEB   MOSUNNY   53  36  52 E18G25    29.55F
MCCOOK NEB     CLOUDY    51  35  54 E15       29.59F
AKRON CO       MOSUNNY   56  38  50 E12G20    29.48F
BURLINGTON CO  NOT AVBL
LIMON CO       CLOUDY    59  32  36 VRB3      29.47F
$$

...UNOFFICIAL OBSERVATIONS...

CITY           SKY/WX    TMP DP  RH WIND       PRES   REMARKS
NORTON KS      PTSUNNY   54  32  43 E16G23    29.60F
SHARON SPRINGS   N/A     63  43  48 SE18G25     N/A
KIT CARSON CO    N/A     60  39  46 MISG        N/A
$$



USA.gov is the U.S. government's official web portal to all federal, state and local government web resources and services.